Date String (YYYY-MM-DD hh:mm:ss) UTC,Instrument flags,Ambient pressure (hPa),Sample flow (lpm),Bypass flow (lpm),Sample temperature (°C),Ambient temperature (°C),ASC tube jacket temperature (°C),LED temperature (°C),Box temperature (°C),Sample RH (%),Span deviation,Mass concentration (μg/m³),Mass concentration (μg/m³),Mass concentration (μg/m³)
DateTimeUTC,F1_M11,P_M11,Q1_M11,Q2_M11,T1_M11,T2_M11,T3_M11,T4_M11,T5_M11,U1_M11,ZSPAN_M11,X0_M11,X2_M11,X1_M11
2023-05-04 21:00:00,,0823.7,5.00,0.00,29.4,28.1,00.0,37.7,31.0,14.9,0000.0,0010.51,0003.77,0002.41
2023-05-04 21:01:00,,0823.6,4.99,0.00,29.5,28.2,00.0,37.7,31.0,14.8,0000.0,0011.08,0003.74,0002.40
2023-05-04 21:02:00,,0823.6,5.00,0.00,29.5,28.2,00.0,37.8,31.0,14.8,0000.0,0011.35,0003.69,0002.38
2023-05-04 21:03:00,,0823.5,5.00,0.00,29.5,28.2,00.0,37.8,31.1,14.7,0000.0,0011.78,0003.70,0002.37
2023-05-04 21:04:00,,0823.5,5.00,0.00,29.5,28.2,00.0,37.8,31.1,14.7,0000.0,0011.45,0003.70,0002.38
2023-05-04 21:05:00,,0823.6,5.00,0.00,29.5,28.2,00.0,37.8,31.1,14.7,0000.0,0011.43,0003.70,0002.38
2023-05-04 21:06:00,,0823.6,4.99,0.00,29.5,28.2,00.0,37.8,31.1,14.6,0000.0,0011.60,0003.69,0002.38
2023-05-04 21:07:00,,0823.5,5.01,0.00,29.5,28.2,00.0,37.8,31.1,14.6,0000.0,0011.53,0003.64,0002.35
2023-05-04 21:08:00,,0823.5,5.00,0.00,29.5,28.2,00.0,37.8,31.1,14.8,0000.0,0011.09,0003.61,0002.35
2023-05-04 21:09:00,,0823.4,5.00,0.00,29.6,28.3,00.0,37.8,31.1,14.7,0000.0,0010.88,0003.61,0002.34
2023-05-04 21:10:00,,0823.4,5.00,0.00,29.6,28.3,00.0,37.9,31.1,14.8,0000.0,0010.40,0003.62,0002.35
2023-05-04 21:11:00,,0823.4,5.00,0.00,29.6,28.3,00.0,37.9,31.1,14.6,0000.0,0010.41,0003.62,0002.35
2023-05-04 21:12:00,,0823.4,5.00,0.00,29.6,28.3,00.0,37.9,31.2,14.6,0000.0,0010.10,0003.65,0002.34
2023-05-04 21:13:00,,0823.4,4.99,0.00,29.6,28.4,00.0,37.9,31.2,14.4,0000.0,0009.97,0003.66,0002.34
2023-05-04 21:14:00,,0823.4,5.00,0.00,29.6,28.4,00.0,37.9,31.2,14.5,0000.0,0009.58,0003.64,0002.32
2023-05-04 21:15:00,,0823.4,5.00,0.00,29.7,28.4,00.0,37.9,31.3,14.6,0000.0,0009.62,0003.64,0002.31
2023-05-04 21:16:00,,0823.4,5.00,0.00,29.7,28.5,00.0,38.0,31.3,14.8,0000.0,0009.28,0003.60,0002.31
2023-05-04 21:17:00,,0823.4,5.01,0.00,29.7,28.5,00.0,38.0,31.2,15.6,0000.0,0009.17,0003.63,0002.30
2023-05-04 21:18:00,,0823.3,5.00,0.00,29.7,28.5,00.0,38.0,31.2,15.6,0000.0,0009.27,0003.67,0002.30
2023-05-04 21:19:00,,0823.0,5.00,0.00,29.7,28.5,00.0,38.0,31.2,15.7,0000.0,0009.42,0003.67,0002.28
2023-05-04 21:20:00,,0823.1,5.01,0.00,29.8,28.5,00.0,38.0,31.3,15.6,0000.0,0009.45,0003.68,0002.26
2023-05-04 21:21:00,,0823.2,5.01,0.00,29.8,28.6,00.0,38.1,31.3,15.1,0000.0,0009.24,0003.66,0002.25
2023-05-04 21:22:00,,0823.2,5.00,0.00,29.8,28.6,00.0,38.1,31.4,15.1,0000.0,0009.08,0003.65,0002.24
2023-05-04 21:23:00,,0823.1,5.00,0.00,29.8,28.6,00.0,38.1,31.4,15.3,0000.0,0008.94,0003.62,0002.23
2023-05-04 21:24:00,,0823.1,5.00,0.00,29.8,28.6,00.0,38.1,31.4,15.1,0000.0,0008.71,0003.62,0002.24
2023-05-04 21:25:00,,0823.0,5.01,0.00,29.9,28.7,00.0,38.1,31.5,15.2,0000.0,0008.42,0003.64,0002.24
2023-05-04 21:26:00,,0823.0,5.00,0.00,29.9,28.7,00.0,38.1,31.5,14.6,0000.0,0008.56,0003.70,0002.27
2023-05-04 21:27:00,,0823.0,5.00,0.00,29.9,28.7,00.0,38.2,31.5,14.5,0000.0,0008.42,0003.73,0002.28
2023-05-04 21:28:00,,0823.1,5.00,0.00,29.9,28.7,00.0,38.2,31.5,14.5,0000.0,0008.47,0003.72,0002.29
2023-05-04 21:29:00,,0823.0,4.99,0.00,29.9,28.7,00.0,38.2,31.5,14.4,0000.0,0008.40,0003.69,0002.30
2023-05-04 21:30:00,,0823.0,5.00,0.00,30.0,28.7,00.0,38.2,31.5,14.7,0000.0,0008.29,0003.71,0002.32
2023-05-04 21:31:00,,0823.0,5.00,0.00,30.0,28.8,00.0,38.2,31.5,14.5,0000.0,0007.94,0003.68,0002.35
2023-05-04 21:32:00,,0823.0,5.00,0.00,30.0,28.8,00.0,38.3,31.6,14.7,0000.0,0007.84,0003.68,0002.37
2023-05-04 21:33:00,,0822.9,5.01,0.00,30.0,28.8,00.0,38.3,31.6,14.6,0000.0,0008.05,0003.74,0002.40
2023-05-04 21:34:00,,0822.9,4.98,0.00,30.0,28.8,00.0,38.3,31.6,14.7,0000.0,0008.15,0003.78,0002.45
2023-05-04 21:35:00,,0822.9,5.01,0.00,30.1,28.8,00.0,38.3,31.6,14.7,0000.0,0009.37,0003.90,0002.50
2023-05-04 21:36:00,,0823.0,5.01,0.00,30.1,28.9,00.0,38.3,31.7,14.9,0000.0,0010.05,0003.97,0002.53
2023-05-04 21:37:00,,0822.9,4.99,0.00,30.1,28.9,00.0,38.4,31.7,15.0,0000.0,0010.48,0003.90,0002.52
2023-05-04 21:38:00,,0823.0,5.00,0.00,30.1,28.9,00.0,38.4,31.7,15.2,0000.0,0010.45,0003.86,0002.51
2023-05-04 21:39:00,,0822.9,5.02,0.00,30.1,28.9,00.0,38.4,31.7,15.1,0000.0,0010.49,0003.88,0002.53
2023-05-04 21:40:00,,0822.9,5.00,0.00,30.1,28.9,00.0,38.4,31.7,15.2,0000.0,0010.56,0003.94,0002.57
2023-05-04 21:41:00,,0822.9,4.99,0.00,30.1,28.9,00.0,38.4,31.7,14.5,0000.0,0010.88,0003.99,0002.59
2023-05-04 21:42:00,,0822.9,5.00,0.00,30.1,28.9,00.0,38.4,31.8,14.8,0000.0,0011.43,0004.06,0002.60
2023-05-04 21:43:00,,0822.9,5.01,0.00,30.2,29.0,00.0,38.5,31.8,14.9,0000.0,0011.51,0004.06,0002.60
2023-05-04 21:44:00,,0823.0,5.01,0.00,30.2,29.0,00.0,38.5,31.8,14.7,0000.0,0011.41,0004.02,0002.60
2023-05-04 21:45:00,,0823.0,5.00,0.00,30.2,29.0,00.0,38.5,31.8,15.2,0000.0,0011.30,0004.02,0002.59
2023-05-04 21:46:00,,0823.0,5.00,0.00,30.2,29.0,00.0,38.5,31.8,15.1,0000.0,0010.13,0003.91,0002.56
2023-05-04 21:47:00,,0823.0,5.00,0.00,30.2,29.1,00.0,38.5,31.8,15.1,0000.0,0009.61,0003.85,0002.56
2023-05-04 21:48:00,,0823.1,5.00,0.00,30.3,29.1,00.0,38.5,31.9,15.1,0000.0,0009.42,0003.87,0002.57
2023-05-04 21:49:00,,0823.0,5.00,0.00,30.3,29.1,00.0,38.6,31.9,14.5,0000.0,0009.77,0003.92,0002.59
2023-05-04 21:50:00,,0823.0,5.00,0.00,30.3,29.1,00.0,38.6,31.9,14.1,0000.0,0010.09,0003.91,0002.58
2023-05-04 21:51:00,,0823.0,4.99,0.00,30.3,29.2,00.0,38.6,31.9,14.1,0000.0,0009.93,0003.85,0002.55
2023-05-04 21:52:00,,0823.0,5.00,0.00,30.3,29.2,00.0,38.6,31.9,14.4,0000.0,0009.55,0003.83,0002.54
2023-05-04 21:53:00,,0823.0,5.00,0.00,30.4,29.2,00.0,38.6,32.0,14.4,0000.0,0009.18,0003.84,0002.57
2023-05-04 21:54:00,,0823.1,5.00,0.00,30.4,29.2,00.0,38.6,32.0,15.0,0000.0,0009.11,0003.82,0002.57
2023-05-04 21:55:00,,0823.1,5.00,0.00,30.4,29.2,00.0,38.7,32.0,15.1,0000.0,0009.33,0003.86,0002.56
2023-05-04 21:56:00,,0823.0,5.00,0.00,30.4,29.2,00.0,38.7,32.0,15.2,0000.0,0009.41,0003.85,0002.53
2023-05-04 21:57:00,,0823.1,5.00,0.00,30.4,29.3,00.0,38.7,32.0,15.0,0000.0,0009.48,0003.87,0002.52
2023-05-04 21:58:00,,0823.1,4.99,0.00,30.5,29.3,00.0,38.7,32.0,15.3,0000.0,0009.42,0003.90,0002.51
2023-05-04 21:59:00,,0823.1,4.99,0.00,30.5,29.3,00.0,38.7,32.0,15.1,0000.0,0009.27,0003.91,0002.50
